FW7196 Weather Reports


Display with metric or nautical units.
time (UTC)temp
F
wind
direction
speed
MPH
gust
MPH
rain 1hr
in
rain 24hr
in
rain mn
in
humidity
%
barometer
mb
20260508041537 34 0 0.0 0.0 0.00 0.00 0.00 83 1008.5
20260508040036 34 0 0.0 0.0 0.00 0.00 0.00 82 1008.4
20260508034535 35 0 0.0 0.0 0.00 0.00 0.00 81 1008.4
20260508033038 36 0 0.0 0.0 0.00 0.00 0.00 79 1008.3
20260508031536 36 0 0.0 0.0 0.00 0.00 0.00 77 1008.3
20260508030048 37 0 0.0 0.0 0.00 0.00 0.00 74 1008.4
20260508024536 38 0 0.0 0.0 0.00 0.04 0.00 72 1008.4
20260508023037 39 0 0.0 0.0 0.00 0.04 0.00 70 1008.3
20260508021537 39 0 0.0 0.0 0.00 0.04 0.00 70 1008.3
20260508020036 40 0 0.0 0.0 0.00 0.04 0.00 69 1008.1
20260508014535 42 0 0.0 0.0 0.00 0.10 0.00 65 1008.0
20260508013034 43 0 0.0 0.0 0.00 0.10 0.00 60 1007.9
20260508011536 45 0 0.0 0.0 0.00 0.10 0.00 61 1007.8
20260508010042 46 0 0.0 0.0 0.00 0.10 0.00 48 1007.6
20260508004538 47 0 0.0 0.0 0.00 0.15 0.00 47 1007.3
20260508003037 48 0 0.0 0.0 0.00 0.15 0.00 46 1007.2
20260508001536 48 0 1.0 6.0 0.00 0.15 0.00 44 1007.0
20260508000041 49 4 1.0 4.0 0.00 0.15 0.00 42 1006.9
20260507234541 50 0 0.0 3.0 0.00 0.19 0.00 41 1006.6
20260507233036 51 0 1.0 7.0 0.00 0.19 0.00 39 1006.5
20260507231535 52 0 1.0 13.0 0.00 0.19 0.00 37 1006.3
20260507230036 52 0 1.0 7.0 0.00 0.19 0.00 37 1006.2
20260507224535 53 11 1.0 7.0 0.00 0.21 0.00 36 1006.1
20260507223034 53 1 1.0 8.0 0.00 0.21 0.00 38 1006.0
20260507221535 53 198 3.0 10.0 0.00 0.21 0.00 35 1005.9
20260507220037 53 0 1.0 9.0 0.00 0.21 0.00 36 1005.8
20260507214534 53 5 2.0 13.0 0.00 0.44 0.00 38 1005.9
20260507213038 52 348 1.0 9.0 0.00 0.44 0.00 38 1005.9
20260507211540 53 5 1.0 11.0 0.00 0.44 0.00 36 1005.8
20260507210036 53 0 1.0 9.0 0.00 0.44 0.00 36 1005.7
20260507204538 54 28 1.0 6.0 0.00 0.52 0.00 35 1005.9
20260507203036 55 201 1.0 9.0 0.00 0.52 0.00 38 1005.6
20260507201539 56 53 1.0 6.0 0.00 0.52 0.00 36 1005.8
20260507200037 55 0 1.0 9.0 0.00 0.52 0.00 37 1005.8
20260507194545 53 281 1.0 9.0 0.00 0.56 0.00 37 1005.9
20260507193037 53 165 1.0 7.0 0.00 0.56 0.00 39 1006.1
20260507191535 54 297 2.0 8.0 0.00 0.56 0.00 37 1006.1
20260507190034 54 334 1.0 10.0 0.00 0.56 0.00 37 1006.2
20260507184537 54 156 2.0 15.0 0.00 0.62 0.00 41 1006.5
20260507183042 54 333 3.0 9.0 0.00 0.62 0.00 39 1006.6
20260507181539 55 153 1.0 7.0 0.00 0.62 0.00 44 1006.6
20260507180034 52 113 2.0 9.0 0.00 0.62 0.00 40 1006.7
20260507174536 54 348 1.0 9.0 0.00 0.73 0.00 41 1006.7
20260507173039 54 159 3.0 9.0 0.00 0.73 0.00 39 1006.6
20260507171536 54 348 1.0 12.0 0.00 0.73 0.00 41 1006.9
20260507170035 54 265 2.0 10.0 0.00 0.73 0.00 42 1007.0
20260507164543 53 33 2.0 8.0 0.00 0.79 0.00 44 1007.2
20260507163037 53 339 0.0 6.0 0.00 0.79 0.00 48 1007.4
20260507161542 52 333 2.0 6.0 0.00 0.79 0.00 46 1007.6
20260507160036 52 9 2.0 12.0 0.00 0.79 0.00 46 1007.8
20260507154537 52 272 1.0 7.0 0.00 0.80 0.00 47 1008.1
20260507153035 51 21 1.0 6.0 0.00 0.80 0.00 50 1007.9
20260507151535 51 149 1.0 9.0 0.00 0.80 0.00 50 1008.0
20260507150035 50 357 2.0 7.0 0.00 0.80 0.00 52 1008.1
20260507144537 49 327 2.0 6.0 0.00 0.80 0.00 57 1008.1
20260507143055 49 262 1.0 4.0 0.00 0.80 0.00 68 1008.2
20260507142721 49 348 1.0 7.0 0.00 0.77 0.00 66 1008.2
20260507142205 49 39 1.0 7.0 0.00 0.77 0.00 67 1008.0
20260507141553 48 219 1.0 9.0 0.00 0.80 0.00 71 1008.0
20260507141026 48 207 1.0 7.0 0.00 0.77 0.00 72 1008.1
20260507140513 47 112 1.0 5.0 0.00 0.77 0.00 78 1007.9
20260507140039 46 340 2.0 6.0 0.00 0.80 0.00 81 1008.0
20260507140017 47 353 1.0 5.0 0.00 0.77 0.00 81 1008.0
20260507134844 45 80 0.0 4.0 0.00 0.77 0.00 89 1008.0
20260507134535 44 80 1.0 5.0 0.00 0.80 0.00 92 1007.8
20260507134351 45 83 0.0 3.0 0.00 0.77 0.00 92 1007.9
20260507133852 45 353 0.0 0.0 0.00 0.77 0.00 94 1007.9
20260507133331 44 353 0.0 1.0 0.00 0.77 0.00 96 1007.8
20260507133037 44 348 0.0 4.0 0.00 0.80 0.00 96 1007.9
20260507132832 44 353 0.0 1.0 0.00 0.77 0.00 96 1007.9
20260507132317 44 353 0.0 2.0 0.00 0.77 0.00 97 1007.9
20260507131541 43 0 0.0 4.0 0.00 0.80 0.00 97 1008.0
20260507130041 43 0 0.0 2.0 0.00 0.80 0.00 97 1008.0
20260507124537 44 0 0.0 0.0 0.00 0.80 0.00 97 1008.0
20260507123040 43 0 0.0 0.0 0.00 0.80 0.00 97 1008.0
20260507121542 43 0 0.0 0.0 0.00 0.80 0.00 97 1007.6
20260507120036 42 0 0.0 0.0 0.00 0.80 0.00 97 1007.8
20260507114535 41 0 0.0 0.0 0.00 0.80 0.00 97 1007.6
20260507113037 41 0 0.0 0.0 0.00 0.80 0.00 97 1007.7
20260507111536 39 0 0.0 0.0 0.00 0.80 0.00 97 1007.6
20260507110037 38 0 0.0 0.0 0.00 0.80 0.00 96 1007.4
20260507104537 38 0 0.0 0.0 0.00 0.80 0.00 96 1007.7
20260507103036 37 0 0.0 0.0 0.00 0.80 0.00 96 1007.6
20260507101537 37 0 0.0 0.0 0.00 0.80 0.00 96 1007.4
20260507100046 37 0 0.0 0.0 0.00 0.80 0.00 95 1007.2
20260507094537 38 0 0.0 0.0 0.00 0.80 0.00 96 1007.5
20260507093648 38 336 0.0 0.0 0.00 0.77 0.00 96 1007.5
20260507093037 38 0 0.0 0.0 0.00 0.80 0.00 96 1007.5
20260507091539 38 0 0.0 0.0 0.00 0.80 0.00 96 1007.7
20260507090044 39 0 0.0 0.0 0.00 0.80 0.00 96 1007.8
20260507084548 39 0 0.0 0.0 0.00 0.80 0.00 96 1007.6
20260507083035 39 0 0.0 0.0 0.00 0.80 0.00 96 1007.6
20260507081534 40 0 0.0 0.0 0.00 0.80 0.00 95 1007.6
20260507080041 40 0 0.0 0.0 0.00 0.80 0.00 96 1007.5
20260507074538 41 0 0.0 0.0 0.00 0.80 0.00 95 1007.7
20260507073036 41 0 0.0 0.0 0.00 0.80 0.00 96 1007.4
20260507071537 42 0 0.0 0.0 0.00 0.80 0.00 96 1007.3
20260507070041 42 0 0.0 0.0 0.00 0.80 0.00 96 1007.2
20260507064558 42 0 0.0 0.0 0.00 0.80 0.00 96 1006.8
20260507063037 42 0 0.0 1.0 0.00 0.80 0.00 96 1007.4
20260507061536 42 0 0.0 0.0 0.00 0.80 0.00 96 1007.3
20260507060041 43 0 0.0 0.0 0.00 0.80 0.00 95 1007.5
20260507054536 43 0 0.0 0.0 0.00 0.80 0.00 96 1007.6
20260507053041 43 0 0.0 0.0 0.00 0.80 0.00 96 1007.9
20260507051545 43 0 0.0 0.0 0.00 0.80 0.00 96 1007.6
20260507050044 43 0 0.0 0.0 0.00 0.80 0.00 95 1007.9
20260507044535 43 0 0.0 0.0 0.00 0.80 0.00 95 1007.3
20260507043035 44 0 0.0 0.0 0.00 0.80 0.00 95 1007.2